Marrakech, Morocco

9:39 PM WEST on September 25, 2016 (GMT +0100)
Menara

Weather History for GMMX - September, 2013

Change the Weather History Date:

Friday, September 6, 2013

  Actual Average Record
Temperature  
Mean Temperature 74 °F -  
Max Temperature 86 °F 92 °F 109 °F (2011)
Min Temperature 63 °F 67 °F 62 °F (2007)
Cooling Degree Days 10    
Growing Degree Days 24 (Base 50)    
Moisture  
Dew Point 60 °F    
Average Humidity 69    
Maximum Humidity 88    
Minimum Humidity 43    
Precipitation  
Precipitation 0.04 in - - ()
Sea Level Pressure  
Sea Level Pressure 30.01 in    
Wind  
Wind Speed 6 mph ()    
Max Wind Speed 15 mph    
Max Gust Speed -    
Visibility 6.0 miles    
Events Rain    
Averages and records for this station are not official NWS values.
T = Trace of Precipitation, MM = Missing Value Source: Averaged Metar Reports

Daily Weather History Graph

Daily Weather History Graph

Search for Another Location

Airport or City:

Trip Planner

Search our weather history database for the weather conditions in past years. The results will help you decide how hot, cold, wet, or windy it might be!

Date:

Astronomy

Sep. 06, 2013 Rise Set
Actual Time 7:10 AM WEST 7:49 PM WEST
Civil Twilight 6:46 AM WEST 8:14 PM WEST
Nautical Twilight 6:17 AM WEST 8:43 PM WEST
Astronomical Twilight 5:47 AM WEST 9:12 PM WEST
Moon 8:02 AM WEST (9/6) 8:15 PM WEST (9/6)
Length of Visible Light 13h 27m
Length of Day
12h 38m
New Moon, 1% of the Moon is Illuminated
Sep 6
New Moon
Sep 12
First Quarter
Sep 19
Full
Sep 27
Last Quarter
Oct 5
New

Hourly Weather History & Observations

Time (WEST) Temp. Dew Point Humidity Pressure Visibility Wind Dir Wind Speed Gust Speed Precip Events Conditions
12:00 AM 69.8 °F 60.8 °F 73% 30.04 in - WSW 12.7 mph - N/A   Clear
12:49 AM 68 °F 60 °F 70% 29.99 in 6 mi WSW 9.2 mph - -   Clear
1:00 AM 68.0 °F 60.8 °F 78% 30.04 in - WSW 10.4 mph - N/A   Clear
1:30 AM 68.0 °F 60.8 °F 78% 30.01 in - WSW 8.1 mph - N/A   Clear
2:00 AM 66.2 °F 60.8 °F 83% 30.01 in - WSW 5.8 mph - N/A   Clear
2:30 AM 66.2 °F 60.8 °F 83% 30.01 in - WSW 4.6 mph - N/A   Clear
3:00 AM 66.2 °F 60.8 °F 83% 30.01 in - WSW 5.8 mph - N/A   Clear
3:30 AM 64.4 °F 60.8 °F 88% 29.98 in - WSW 5.8 mph - N/A   Clear
4:00 AM 64 °F 59 °F 80% 29.96 in 6 mi WSW 6.9 mph - -   Clear
4:00 AM 64.4 °F 59.0 °F 83% 29.98 in - WSW 6.9 mph - N/A   Clear
4:30 AM 64.4 °F 59.0 °F 83% 29.98 in - SW 6.9 mph - N/A   Clear
5:00 AM 64.4 °F 59.0 °F 83% 29.98 in - SW 6.9 mph - N/A   Clear
5:30 AM 62.6 °F 59.0 °F 88% 29.98 in - SW 6.9 mph - N/A   Clear
6:00 AM 64.4 °F 60.8 °F 88% 29.98 in 6.2 mi WSW 6.9 mph - N/A   Scattered Clouds
6:30 AM 64.4 °F 60.8 °F 88% 30.01 in 6.2 mi WSW 6.9 mph - N/A   Scattered Clouds
7:00 AM 65 °F 61 °F 83% 29.96 in 6 mi SW 4.6 mph - -   Partly Cloudy
7:00 AM 64.4 °F 60.8 °F 88% 30.01 in 6.2 mi SW 4.6 mph - N/A   Scattered Clouds
7:30 AM 66.2 °F 60.8 °F 83% 30.01 in 6.2 mi WSW 5.8 mph - N/A   Scattered Clouds
8:00 AM 66.2 °F 60.8 °F 83% 30.01 in 6.2 mi West 5.8 mph - N/A   Scattered Clouds
8:30 AM 66.2 °F 60.8 °F 83% 30.01 in 6.2 mi WNW 3.5 mph - N/A   Scattered Clouds
9:00 AM 66.2 °F 60.8 °F 83% 30.01 in 6.2 mi Variable 2.3 mph - N/A   Scattered Clouds
9:30 AM 68.0 °F 60.8 °F 78% 30.01 in 5.6 mi Variable 2.3 mph - N/A   Scattered Clouds
10:00 AM 68 °F 61 °F 73% 29.97 in 4 mi Calm Calm - -   Mostly Cloudy
10:00 AM 68.0 °F 60.8 °F 78% 30.01 in 4.3 mi Calm Calm - N/A   Scattered Clouds
10:30 AM 68.0 °F 60.8 °F 78% 30.01 in 5.6 mi West 5.8 mph - N/A   Scattered Clouds
11:00 AM 68.0 °F 60.8 °F 78% 30.01 in 5.0 mi West 5.8 mph - N/A   Scattered Clouds
11:30 AM 71.6 °F 60.8 °F 69% 30.04 in 6.2 mi West 3.5 mph - N/A   Scattered Clouds
12:00 PM 73.4 °F 60.8 °F 65% 30.04 in 6.2 mi Variable 3.5 mph - N/A   Mostly Cloudy
12:30 PM 75.2 °F 62.6 °F 65% 30.01 in 6.2 mi West 3.5 mph - N/A   Scattered Clouds
1:00 PM 77 °F 61 °F 49% 29.93 in 6 mi WSW 2.3 mph - -   Partly Cloudy
1:00 PM 77.0 °F 62.6 °F 61% 30.01 in 6.2 mi Variable 2.3 mph - N/A   Scattered Clouds
1:30 PM 78.8 °F 60.8 °F 54% 29.98 in 6.2 mi Variable 3.5 mph - N/A   Scattered Clouds
2:00 PM 78.8 °F 60.8 °F 54% 29.98 in 6.2 mi West 4.6 mph - N/A   Scattered Clouds
2:30 PM 77.0 °F 59.0 °F 54% 30.01 in 6.2 mi West 15.0 mph - N/A   Scattered Clouds
3:00 PM 77.0 °F 59.0 °F 54% 30.01 in 6.2 mi SW 8.1 mph - N/A   Scattered Clouds
3:30 PM 77.0 °F 59.0 °F 54% 30.01 in 6.2 mi SW 9.2 mph - N/A   Scattered Clouds
4:00 PM 76 °F 58 °F 43% 29.94 in 6 mi West 9.2 mph - -   Partly Cloudy
4:00 PM 77.0 °F 59.0 °F 54% 30.01 in 6.2 mi West 8.1 mph - N/A   Scattered Clouds
4:30 PM 77.0 °F 59.0 °F 54% 30.01 in 6.2 mi West 10.4 mph - N/A   Scattered Clouds
5:00 PM 75.2 °F 59.0 °F 57% 30.01 in 6.2 mi Variable 3.5 mph - N/A   Scattered Clouds
5:30 PM 75.2 °F 59.0 °F 57% 30.01 in 6.2 mi SSW 4.6 mph - N/A   Scattered Clouds
6:00 PM 75.2 °F 60.8 °F 61% 30.01 in 6.2 mi South 6.9 mph - N/A Rain Light Rain
6:30 PM 75.2 °F 60.8 °F 61% 30.01 in 6.2 mi NW 4.6 mph - N/A   Scattered Clouds
7:00 PM 76 °F 59 °F 45% 29.94 in 6 mi SE 8.1 mph - -   Clear
7:00 PM 75.2 °F 59.0 °F 57% 30.01 in 6.2 mi SE 6.9 mph - N/A   Scattered Clouds
7:30 PM 77.0 °F 57.2 °F 50% 30.01 in 6.2 mi SE 3.5 mph - N/A   Scattered Clouds
8:00 PM 75.2 °F 60.8 °F 61% 30.01 in 6.2 mi Variable 1.2 mph - N/A   Scattered Clouds
8:30 PM 73.4 °F 62.6 °F 69% 30.04 in 6.2 mi SW 6.9 mph - N/A   Scattered Clouds
9:00 PM 73.4 °F 62.6 °F 69% 30.06 in 6.2 mi WSW 9.2 mph - N/A   Scattered Clouds
9:30 PM 71.6 °F 59.0 °F 64% 30.09 in 6.2 mi West 12.7 mph - N/A   Partly Cloudy
10:00 PM 71 °F 59 °F 58% 30.05 in 6 mi West 10.4 mph - -   Clear
10:00 PM 71.6 °F 59.0 °F 64% 30.09 in 6.2 mi West 9.2 mph - N/A   Partly Cloudy
10:30 PM 71.6 °F 59.0 °F 64% 30.06 in 6.2 mi Variable 2.3 mph - N/A   Partly Cloudy
11:00 PM 71.6 °F 59.0 °F 64% 30.06 in 6.2 mi SE 4.6 mph - N/A   Partly Cloudy
11:30 PM 69.8 °F 60.8 °F 73% 30.06 in 6.2 mi SW 3.5 mph - N/A   Partly Cloudy